Berea, OH (44017)

1:22 PM EDT on July 24, 2016 (GMT -0400)
Southeast Berea | | Change Station
Active Advisory: Heat Advisory

Elev 804 ft 41.36 °N, 81.84 °W | Updated 10 minutes ago

Light Thunderstorms and Rain
Light Thunderstorm Rain
76.5 °F
Feels Like 78 °F
N
3.2
Wind Variable Wind from SSW

Today
High -- | Low -- °F
--% Chance of Precip.
Yesterday
High -- | Low -- °F
Precip. -- in
Pressure 29.98 in
Visibility 10.0 miles
Clouds Scattered Clouds 4200 ft
Mostly Cloudy 5500 ft
Overcast 9000 ft
Heat Index 78 °F
Dew Point 68 °F
Humidity 76%
Rainfall 0.00 in
Snow Depth Not available.
6:15 AM 8:52 PM
Waning Gibbous, 74% visible
METAR KCLE 241651Z 16009KT 10SM -TSRA SCT042CB BKN055 OVC090 26/20 A3000 RMK AO2 LTG DSNT SE AND S RAB46 TSB35 SLP152 OCNL LTGICCCCG E-S TS E-S MOV E P0001 T02610200 $
Pressure 29.98 in
Visibility 10.0 miles
Clouds Scattered Clouds 4200 ft
Mostly Cloudy 5500 ft
Overcast 9000 ft
Heat Index 78 °F
Dew Point 68 °F
Humidity 76%
Rainfall 0.00 in
Snow Depth Not available.
6:15 AM 8:52 PM
Waning Gibbous, 74% visible
METAR KCLE 241651Z 16009KT 10SM -TSRA SCT042CB BKN055 OVC090 26/20 A3000 RMK AO2 LTG DSNT SE AND S RAB46 TSB35 SLP152 OCNL LTGICCCCG E-S TS E-S MOV E P0001 T02610200 $

10-Day Weather Forecast

Almanac

Astronomy

Jul. 24, 2016 Rise Set
Actual Time
Civil Twilight
Nautical Twilight
Astronomical Twilight
Moon
Length of Visible Light
Length of Day
Tomorrow will be .
, % of the Moon is Illuminated

Today's Extremes

State Highs State Lows

Community

WunderPhotos

Upload Photos

1,927,127 photos uploaded!

WunderBlog® & News

Nearby

Air Quality

  Air Quality AQ Index Pollutant
Not available.

Snow Depth

Station Depth Elevation

Earthquake Activity

City Distance Mag. Time & Date
Minimum magnitude displayed is 2.5.

Coastal Water Temperatures

Place Temperature

Stations

Nearby Weather Stations

Station Location Temp. Windchill Dew Point Humidity Wind Precip. Elev Updated Type
                   

Watches & Warnings

Heat Advisory
Issued: 9:57 AM EDT Jul. 24, 2016 – National Weather Service

... Heat advisory remains in effect until 8 PM EDT this evening...

* temperature... afternoon highs in the lower 90s.

* Maximum heat index values... near 100 degrees.

* Impacts... there is a risk of heat related illnesses for people
with prolonged outdoor exposure... especially those working in
the direct sunshine. Those without air conditioning are at
risk. The elderly and small children are especially
susceptible to the heat. Make sure outdoor pets have plenty of
water and shade.

Precautionary/preparedness actions...

A heat advisory means that the combination of high temperatures
and high humidity will combine to create a situation in which
heat illnesses are possible. Drink plenty of fluids... stay in an
air-conditioned room... stay out of the sun... and check up on
relatives and neighbors.